Location: A�t Azrou
(32.7128°N, 5.5559°W)
Time: 07:05:02
(UTC+00:00)

Daily predictions for brighter satellites

Satellite Brightness Start Highest point End
(mag) Time Altitude Azimuth Time Altitude Azimuth Time Altitude Azimuth
Meteor 2-15 4.4 19:01:51 10° S 19:07:54 83° E 19:13:58 10° N
ISS -3.0 19:06:50 10° NNW 19:10:00 38° NE 19:13:09 10° ESE
Cosmos 1758 3.6 19:06:14 10° S 19:10:18 76° W 19:14:24 10° N
STARLINK-1084 3.8 19:06:22 10° NW 19:10:28 61° NE 19:14:33 10° SE
FALCON 9 DEB 3.4 19:10:38 10° SSW 19:14:00 48° SE 19:17:23 10° NE
Cosmos 1943 Rocket 2.3 19:09:03 10° NNW 19:14:31 57° ENE 19:20:00 10° SE
SL-4 R/B 3.9 19:12:14 10° W 19:15:03 23° NW 19:17:51 10° NNE
CSL-04 Debris 4.2 19:09:42 10° SSE 19:15:10 82° ENE 19:20:39 10° N
STARLINK-1098 3.7 19:11:20 10° NW 19:15:27 68° NE 19:19:34 10° SE
Hubble Space Telescope 2.2 19:13:42 10° SW 19:17:00 24° SSE 19:20:19 10° ESE
Delta 128 4.4 19:14:08 10° WSW 19:18:24 43° S 19:23:04 10° ESE
STARLINK-1123 3.6 19:16:19 10° NW 19:20:28 77° NE 19:24:35 10° SE
Cosmos 292 Rocket 3.9 19:17:52 10° N 19:22:36 55° ENE 19:27:19 10° SSE
H-2A R/B 2.8 19:18:21 10° SE 19:22:56 31° ENE 19:27:25 10° N
Cosmos 2369 Rocket 2.4 19:18:37 10° N 19:24:08 50° ENE 19:29:34 10° SE
STARLINK-1097 3.6 19:21:16 10° NW 19:25:24 86° NE 19:29:32 10° SE
CZ-2C R/B 3.8 19:21:34 10° SE 19:25:45 28° ENE 19:29:49 10° NNE
H-2A R/B 3.4 19:09:09 10° W 19:26:04 48° SSW 19:29:33 10° SE
STARLINK-1099 3.6 19:26:15 10° NW 19:30:23 85° SW 19:34:30 10° SE
STARLINK-52 2.8 19:29:26 10° SW 19:32:37 81° SE 19:35:50 10° NE
Cosmos 1908 4.1 19:29:33 10° SSE 19:32:53 29° E 19:36:14 10° NNE
CZ-4 R/B 3.4 19:30:44 10° SSW 19:34:06 29° W 19:37:29 10° NW
Cosmos 1437 3.6 19:32:24 10° NNE 19:35:02 27° ENE 19:36:41 17° SE
STARLINK-1104 3.7 19:31:13 10° NW 19:35:21 76° SW 19:39:17 11° SE
Cosmos 1939 Rocket 4.4 19:32:26 10° SSW 19:36:05 37° W 19:39:43 10° NNW
YAOGAN 1 4.0 19:33:07 10° S 19:37:11 40° W 19:41:16 10° NNW
HJ-1C 3.4 19:36:20 10° S 19:39:41 87° W 19:43:03 10° NNW
CSL-04 Rocket 4.3 19:34:31 10° S 19:39:43 59° WSW 19:44:56 10° NNW
STARLINK-1144 3.9 19:36:13 10° NW 19:40:19 67° SW 19:44:04 12° SSE
Cosmos 1943 4.0 19:36:45 10° SW 19:42:15 55° WNW 19:47:50 10° N
Ariane Rocket 3.0 19:38:48 10° SSE 19:43:46 59° ENE 19:48:44 10° N
Cosmos 1953 3.1 19:40:25 10° SSW 19:44:16 54° W 19:48:11 10° N
STARLINK-1103 4.1 19:41:11 10° NW 19:45:16 59° SW 19:48:50 13° SSE
Cosmos 1140 Rocket 3.8 19:42:21 10° S 19:47:10 40° E 19:51:59 10° NNE
ATLAS 2AS CENTAUR R/B 3.8 19:41:05 10° N 19:47:25 29° NE 19:51:22 18° E
USA 234 3.7 19:41:36 10° ENE 19:47:34 37° SE 19:53:30 10° SSW
Cosmos 1726 2.4 19:44:11 10° SSW 19:47:53 71° W 19:51:37 10° N
Cosmos 2263 4.2 19:43:24 10° NNW 19:48:56 59° ENE 19:53:41 14° SE
IRS-1A Rocket 4.3 19:44:16 10° SSE 19:49:51 65° ENE 19:55:35 10° N
STARLINK-1101 4.3 19:46:13 10° NW 19:50:14 52° SW 19:53:38 14° SSE
Aureole 2 Rocket 3.2 19:46:57 10° NNW 19:50:15 49° WSW 19:53:25 10° S
CZ-3A R/B 4.5 19:14:29 10° W 19:51:53 47° SSW 19:59:05 14° SE
Cosmos 1190 Rocket 4.1 19:48:22 10° S 19:53:32 56° ESE 19:58:43 10° NNE
Cosmos 2058 Rocket 3.7 19:50:34 10° SSE 19:54:40 36° E 19:58:48 10° NNE
STARLINK-1102 4.5 19:51:15 10° NW 19:55:13 46° SW 19:58:26 15° SSE
IRIDIUM 104 4.2 19:51:38 10° N 19:56:52 83° E 20:02:04 10° S
FREGAT/IRIS 2.3 19:56:59 40° SE 19:57:43 60° ENE 20:00:24 10° N
Cosmos 1656 Rocket 4.0 19:52:25 10° N 19:57:47 44° ENE 20:00:47 24° SE
Cosmos 614 Rocket 4.0 19:54:15 10° SSW 19:59:28 84° WNW 20:04:43 10° NNE
Cosmos 1726 Rocket 3.4 19:58:11 10° S 20:02:33 76° E 20:06:58 10° N
COSMOS 2455 4.4 19:59:53 10° N 20:03:44 17° NE 20:05:12 16° ENE
ARGOS 3.1 19:58:51 11° SSE 20:04:02 68° ENE 20:09:24 10° N
Cosmos 2184 Rocket 3.9 19:57:48 10° N 20:04:04 75° E 20:10:15 10° S
DMSP B5D2-2 4.3 20:00:12 10° NNE 20:05:10 44° E 20:10:09 10° S
CZ-2C R/B 3.0 20:01:02 10° NNE 20:05:49 37° E 20:09:07 18° SSE
IRIDIUM 114 4.4 20:00:47 10° N 20:06:00 79° W 20:11:13 10° S
USA 186 1.7 20:04:33 23° SSE 20:06:32 87° ENE 20:09:49 10° N
Resurs 01 Rocket 3.2 20:08:29 19° ENE 20:08:29 19° ENE 20:11:02 10° NNE
Nadezhda 1 Rocket 4.0 20:09:59 10° S 20:16:23 90° SE 20:22:47 10° N
SL-24 R/B 3.5 20:12:48 10° NNE 20:16:40 82° E 20:19:48 14° S
Cosmos 1825 Rocket 3.6 20:12:45 10° N 20:17:07 80° W 20:20:21 17° S
GEOS 3 Rocket 3.7 20:15:55 24° SSE 20:19:06 75° WSW 20:24:17 10° NW
Cosmos 2228 3.9 20:16:56 10° SSW 20:21:05 50° W 20:25:17 10° N
Cosmos 407 Rocket 3.9 20:16:06 10° SSW 20:21:11 62° WNW 20:26:16 10° N
APEX 4.4 20:16:02 10° N 20:21:48 43° ENE 20:22:48 39° E
Cosmos 676 Rocket 3.9 20:17:05 10° S 20:22:18 61° ESE 20:27:29 10° NNE
Meteor 2-17 Rocket 4.4 20:16:20 10° N 20:22:26 64° E 20:25:50 27° SSE
SPOT 3 Rocket 3.5 20:24:32 40° SE 20:26:16 62° ENE 20:31:24 10° N
Cosmos 2154 Rocket 3.9 20:20:24 10° N 20:26:45 72° E 20:30:30 26° SSE
SJ-6B 3.0 20:26:14 32° S 20:28:02 73° W 20:32:10 10° NNW
MINOTAUR IV R/B 4.4 20:23:42 10° SSW 20:28:10 76° ESE 20:32:38 10° NNE
Cosmos 1461 4.3 20:28:28 10° N 20:32:00 28° NE 20:32:00 28° NE
ATLAS 5 CENTAUR R/B 3.4 20:35:06 10° WSW 20:38:40 29° NW 20:42:32 10° N
Cosmos 1953 Rocket 3.8 20:34:26 10° NNW 20:38:53 68° W 20:40:26 39° SSW
SEDSat Delta rocket 3.8 20:37:32 10° W 20:42:15 40° SSW 20:42:18 40° SSW
Cosmos 1954 Rocket 4.0 20:40:05 10° SSW 20:45:21 82° WNW 20:50:36 10° NNE
ISS -1.1 20:44:37 10° W 20:46:33 15° SW 20:46:36 15° SW
SL-8 R/B 3.9 20:43:50 10° WNW 20:48:33 61° SW 20:48:42 60° SSW
Hubble Space Telescope 2.6 20:53:55 10° WSW 20:55:44 23° SW 20:55:44 23° SW
H-2A R/B 4.1 20:58:02 10° SSW 21:02:16 25° W 21:06:26 10° NW
MOS 1 Rocket 4.4 21:00:27 10° N 21:05:42 51° WNW 21:10:55 10° SSW
NOSS 3-4 (A) 3.8 20:59:15 10° NNW 21:06:35 86° ENE 21:08:02 63° SE
NOSS 3-4 (C) 3.8 20:59:21 10° NNW 21:06:41 86° ENE 21:08:07 63° SE
USA 234 4.0 21:24:18 10° NNE 21:30:34 51° NW 21:36:49 10° WSW
ATLAS 2AS CENTAUR R/B 3.2 21:31:39 10° NW 21:38:39 51° WSW 21:38:50 51° WSW
Resurs 01 Rocket 3.9 21:46:03 21° WNW 21:46:03 21° WNW 21:48:02 10° NW
COSMOS 2455 3.7 21:44:11 10° NNW 21:48:22 45° NW 21:48:22 45° NW
ATLAS 5 CENTAUR R/B 4.2 22:14:38 10° WSW 22:55:58 19° ESE 23:13:57 10° ESE
